Terminal Aerodrome Forecast
Issued by NWS Portland, ME

Home | Current Version | Previous Version | Text Only | Print | Product List | Glossary On
Versions: 1 2 3 4 5 6 7 8 9 10 11 12 13 14 15 16 17 18 19 20 21 22 23 24 25 26
000
FTUS41 KGYX 010829 AAC
TAFCON
TAF AMD
KCON 010829Z 0108/0206 00000KT 1/4SM FG VV003
     FM011200 27004KT 1/2SM FG OVC002
     FM011300 27004KT P6SM OVC009
     FM011400 26004KT P6SM OVC013
     FM011500 23003KT P6SM SKC=

USA.gov is the U.S. government's official web portal to all federal, state and local government web resources and services.